Location: Roanoke
(37.2710°N, 79.9420°W)
Time: 12:25:11
(UTC-05:00)

Courier 1B Rocket - Pass Details

Date: 20 November 2019
Orbit: 920 x 1202 km, 28.2° (Epoch: 05 December)

Event Time Altitude Azimuth Distance (km) Brightness Sun altitude
Rises 19:22:40 0° 265° (W) 3,983 9.5 -26.9°
Reaches altitude 10° 19:25:57 10° 252° (WSW) 3,058 8.5 -27.6°
Maximum altitude 19:31:55 25° 201° (SSW) 2,170 7.0 -28.7°
Enters shadow 19:35:51 17° 162° (SSE) 2,617 7.1 -29.5°
Drops below altitude 10° 19:38:02 10° 149° (SSE) 3,124 - -30.0°
Sets 19:41:26 0° 137° (SE) 4,085 - -30.6°
